EDT,Max TemperatureF,Mean TemperatureF,Min TemperatureF,Max Dew PointF,MeanDew PointF,Min DewpointF,Max Humidity, Mean Humidity, Min Humidity, Max Sea Level PressureIn, Mean Sea Level PressureIn, Min Sea Level PressureIn, Max VisibilityMiles, Mean VisibilityMiles, Min VisibilityMiles, Max Wind SpeedMPH, Mean Wind SpeedMPH, Max Gust SpeedMPH,PrecipitationIn, CloudCover, Events, WindDirDegrees
2013-10-1,80,66,52,57,53,50,93,65,36,30.06,30.00,29.93,10,10,7,15,4,25,0.00,4,,254
2013-10-2,83,67,50,60,54,48,96,70,43,30.06,30.02,29.96,10,7,0,16,3,24,0.00,4,Fog,275
2013-10-3,81,67,53,62,56,51,100,73,45,30.15,30.09,30.01,10,7,0,9,2,13,0.00,4,Fog,39
2013-10-4,82,72,62,69,64,60,93,76,58,30.08,30.03,29.98,10,6,0,10,1,13,0.18,5,Fog-Rain,278
2013-10-5,82,74,65,67,65,64,100,79,58,30.10,30.05,29.98,10,5,0,7,2,9,0.06,6,Fog-Rain,207
2013-10-6,82,74,65,66,65,64,100,79,58,30.00,29.95,29.88,10,6,3,20,8,28,0.00,5,,124
2013-10-7,73,61,48,64,57,40,87,67,47,30.04,29.81,29.70,10,9,0,25,8,41,1.05,6,Fog-Rain,263
2013-10-8,70,56,42,47,41,36,96,62,28,30.35,30.23,30.06,10,10,10,14,3,18,0.00,0,,314
2013-10-9,67,54,41,47,41,35,96,64,32,30.42,30.36,30.30,10,8,0,10,2,17,0.00,3,Fog,169
2013-10-10,62,52,42,51,44,35,96,66,36,30.30,30.22,30.14,10,10,4,7,1,8,0.36,6,Rain,276
2013-10-11,64,58,51,54,50,48,89,78,67,30.13,30.10,30.05,10,8,2,10,5,13,0.37,7,Rain,272
2013-10-12,77,63,48,50,44,35,93,58,23,30.24,30.16,30.10,10,10,10,10,3,17,0.00,4,,114
2013-10-13,68,61,53,53,48,45,83,66,48,30.34,30.29,30.25,10,10,10,13,3,21,0.00,7,,108
2013-10-14,64,59,53,54,50,46,93,80,67,30.35,30.31,30.25,10,10,4,9,2,14,T,7,Rain,253
2013-10-15,72,61,49,54,50,46,100,72,44,30.25,30.19,30.06,10,5,0,13,4,17,0.00,2,Fog,130
2013-10-16,63,58,53,56,50,40,78,65,51,30.05,29.96,29.87,10,10,10,12,4,18,T,6,Rain,73
2013-10-17,71,63,55,61,55,48,93,70,47,29.91,29.79,29.62,10,8,1,28,7,32,0.63,7,Rain,244
2013-10-18,62,52,41,50,42,37,89,64,39,30.00,29.90,29.77,10,10,10,16,6,25,0.00,5,Rain,257
2013-10-19,58,47,36,50,41,35,100,80,59,30.00,29.89,29.75,10,6,0,21,4,30,0.10,5,Fog-Rain,160
2013-10-20,60,50,39,39,37,34,92,66,39,30.06,29.96,29.84,10,10,10,17,6,22,T,3,Rain,257
2013-10-21,66,50,34,41,36,32,96,65,34,30.14,30.04,29.89,10,8,2,26,6,33,0.00,2,,148
2013-10-22,60,51,41,44,36,26,74,52,30,29.88,29.83,29.79,10,10,10,18,8,22,0.00,3,,286
2013-10-23,48,44,39,36,34,32,85,70,54,29.84,29.77,29.71,10,10,10,12,4,15,T,6,Rain,262
2013-10-24,50,44,37,34,30,24,85,62,39,30.06,29.94,29.84,10,10,10,23,11,29,T,4,,270
2013-10-25,51,42,32,35,32,28,82,62,42,30.24,30.18,30.06,10,10,10,17,7,23,T,5,,272
2013-10-26,54,41,27,31,26,22,92,60,28,30.23,30.07,29.88,10,9,0,23,7,33,T,4,Fog,223
2013-10-27,53,44,34,34,31,28,82,62,41,30.13,30.00,29.89,10,10,10,16,7,22,0.00,5,,269
2013-10-28,59,44,28,37,31,26,92,66,40,30.34,30.24,30.14,10,10,10,9,2,12,0.00,2,,298
2013-10-29,54,44,33,36,32,28,89,65,41,30.44,30.38,30.33,10,10,10,7,1,8,0.00,3,,321
2013-10-30,63,49,34,43,37,31,89,68,46,30.32,30.23,30.13,10,10,10,7,1,7,0.00,2,,72
2013-10-31,63,57,51,57,53,41,93,85,77,30.17,29.95,29.64,10,4,2,31,10,39,0.24,8,Rain,119